Location: Cedar Falls
(42.5280°N, 92.4450°W)
Time: 05:55:38
(UTC-05:00)

NOSS 3-1 (C) - Visible Passes

Search period start: 30 August 2016 00:00
Search period end: 09 September 2016 00:00
Orbit: 847 x 1362 km, 63.4° (Epoch: 31 July)

Date Brightness Start Highest point End Pass type
(mag) Time Alt. Az. Time Alt. Az. Time Alt. Az.
01 Sep 5.6 05:54:05 10° SSE 05:58:38 24° ESE 06:03:31 10° ENE visible
02 Sep 6.0 05:11:12 10° SE 05:13:53 13° ESE 05:16:41 10° ENE visible
04 Sep 5.0 05:28:21 10° S 05:33:26 32° ESE 05:38:57 10° NE visible
05 Sep 5.7 04:44:41 10° SSE 04:48:37 19° ESE 04:52:45 10° ENE visible
06 Sep 3.7 05:47:32 10° SSW 05:53:19 72° ESE 05:59:47 10° NE visible
07 Sep 4.4 05:02:49 10° S 05:08:16 43° ESE 05:14:15 10° NE visible
08 Sep 5.1 04:19:22 13° SSE 04:23:22 25° ESE 04:28:22 10° ENE visible
08 Sep 3.7 06:07:50 10° SW 06:13:38 58° NW 06:20:09 10° NNE visible
